This demonstration page uses our WeatherBlox Daily Observations layout. Learn more.

Left ArrowRight Arrow

Hourly Observations for August 28, 2021

Temp ( °F °C ) Dew Point ( °F °C ) Humidity (%) Winds ( mph kmh ) Pressure ( in mb ) Visibility ( mi km ) Precip ( " mm )
12:51 am 00:51 Clear 79 26.1 54 12.2 42 42 E 6 9 29.75 1007 10 16 0.00 0.00
1:51 am 01:51 Clear 77 25 55 12.8 47 47 E 8 13 29.73 1007 10 16 0.00 0.00
2:51 am 02:51 Clear 75 23.9 56 13.3 52 52 E 8 13 29.73 1007 10 16 0.00 0.00
3:51 am 03:51 Clear 75 23.9 56 13.3 52 52 E 10 17 29.74 1007 10 16 0.00 0.00
4:51 am 04:51 Clear 72 22.2 56 13.3 57 57 Calm 29.78 1009 10 16 0.00 0.00
5:51 am 05:51 Sunny 74 23.3 56 13.3 54 54 ESE 9 15 29.80 1009 10 16 0.00 0.00
6:51 am 06:51 Sunny 76 24.4 56 13.3 50 50 NE 8 13 29.81 1009 10 16 0.00 0.00
7:51 am 07:51 Sunny 80 26.7 57 13.9 45 45 ESE 12 19 29.81 1010 10 16 0.00 0.00
8:51 am 08:51 Sunny 84 28.9 57 13.9 40 40 ESE 13 20 29.82 1010 10 16 0.00 0.00
9:51 am 09:51 Sunny 88 31.1 53 11.7 30 30 ESE 8 13 29.81 1010 10 16 0.00 0.00
10:51 am 10:51 Sunny 91 32.8 56 13.3 31 31 VRB 6 9 29.80 1009 10 16 0.00 0.00
11:51 am 11:51 Sunny 94 34.4 56 13.3 28 28 S 8 13 29.77 1008 10 16 0.00 0.00
12:51 pm 12:51 Sunny 96 35.6 56 13.3 26 26 VRB 7 11 29.73 1007 10 16 0.00 0.00
1:51 pm 13:51 Sunny 96 35.6 56 13.3 26 26 undefined N/A 29.71 1006 10 16 0.00 0.00
2:51 pm 14:51 Sunny 97 36.1 54 12.2 24 24 W 8 13 29.69 1005 10 16 0.00 0.00
3:35 pm 15:35 Mostly Sunny 96 35.6 53 11.7 23 23 NNE 28 44 29.57 1001 10 16 0.00 0.00
3:51 pm 15:51 Sunny 96 35.6 50 10 21 21 N 23 37 29.67 1005 10 16 0.00 0.00
4:51 pm 16:51 Mostly Sunny 91 32.8 52 11.1 26 26 NNE 22 35 29.70 1006 10 16 0.00 0.00
5:10 pm 17:10 Sunny with Nearby Thunderstorms 90 32.2 52 11.1 27 27 NNE 24 39 29.61 1003 10 16 0.00 0.00
5:19 pm 17:19 Partly Cloudy with Thunderstorms 90 32.2 51 10.6 26 26 NE 23 37 29.62 1003 10 16 0.00 0.00
5:34 pm 17:34 Mostly Cloudy with Nearby Thunderstorms 90 32.2 53 11.7 28 28 ESE 24 39 29.65 1004 10 16 0.00 0.00
5:41 pm 17:41 Cloudy with Nearby Thunderstorms 87 30.6 58 14.4 37 37 ESE 17 28 29.67 1005 10 16 0.00 0.00
5:51 pm 17:51 Cloudy with Nearby Thunderstorms 86 30 58 14.4 39 39 SE 15 24 29.76 1008 10 16 0.00 0.00
6:00 pm 18:00 Mostly Cloudy 85 29.4 58 14.4 40 40 SE 15 24 29.69 1005 10 16 0.00 0.00
6:09 pm 18:09 Mostly Cloudy with Nearby Thunderstorms 80 26.7 64 17.8 58 58 SSE 15 24 29.71 1006 8 13 0.00 0.00
6:25 pm 18:25 Mostly Cloudy with Thunderstorms 80 26.7 64 17.8 58 58 S 9 15 29.72 1007 10 16 0.00 0.00
6:40 pm 18:40 Partly Cloudy with Nearby Thunderstorms 78 25.6 64 17.8 62 62 SSE 6 9 29.74 1007 10 16 0.00 0.00
6:48 pm 18:48 Mostly Sunny 79 26 64 18 61 61 SSE 8 13 29.73 1007 10 16 0.00 0.00
6:51 pm 18:51 Mostly Clear 78 25.6 64 17.8 62 62 SSE 8 13 29.78 1008 10 16 0.00 0.00
7:51 pm 19:51 Clear 79 26.1 62 16.7 56 56 ESE 7 11 29.78 1008 10 16 0.00 0.00
8:51 pm 20:51 Clear 82 27.8 59 15 46 46 ENE 13 20 29.80 1009 10 16 0.00 0.00
9:51 pm 21:51 Clear 81 27.2 59 15 47 47 E 9 15 29.78 1009 10 16 0.00 0.00
10:51 pm 22:51 Clear 82 27.8 58 14.4 44 44 E 8 13 29.77 1008 10 16 0.00 0.00
11:51 pm 23:51 Clear 78 25.6 61 16.1 56 56 S 6 9 29.77 1008 10 16 0.00 0.00

Powered by AerisWeather